TimeCDT,TemperatureF,Dew PointF,Humidity,Sea Level PressureIn,VisibilityMPH,Wind Direction,Wind SpeedMPH,Gust SpeedMPH,PrecipitationIn,Events,Conditions,WindDirDegrees,DateUTC
12:55 AM,41.7,31.6,67,30.33,10.0,NE,3.5,-,N/A,,Partly Cloudy,40,2012-10-06 05:55:00
1:55 AM,43.3,33.4,68,30.34,10.0,North,4.6,-,N/A,,Clear,360,2012-10-06 06:55:00
2:55 AM,44.1,33.6,67,30.33,10.0,North,5.8,-,N/A,,Overcast,10,2012-10-06 07:55:00
3:55 AM,44.1,33.8,67,30.30,10.0,NNE,8.1,-,N/A,,Mostly Cloudy,20,2012-10-06 08:55:00
4:55 AM,44.2,32.7,64,30.30,10.0,NNE,10.4,-,N/A,,Mostly Cloudy,20,2012-10-06 09:55:00
5:55 AM,44.2,32.4,63,30.30,10.0,NNE,8.1,-,N/A,,Mostly Cloudy,20,2012-10-06 10:55:00
6:55 AM,44.6,32.7,63,30.31,10.0,NNE,3.5,-,N/A,,Overcast,30,2012-10-06 11:55:00
7:55 AM,45.0,32.7,62,30.31,10.0,North,9.2,-,N/A,,Mostly Cloudy,10,2012-10-06 12:55:00
8:55 AM,45.0,34.3,66,30.35,10.0,NNE,9.2,-,N/A,,Overcast,30,2012-10-06 13:55:00
9:32 AM,44.6,33.8,66,30.35,10.0,NE,9.2,-,N/A,,Light Drizzle,40,2012-10-06 14:32:00
9:41 AM,44.6,32.0,61,30.36,10.0,NE,10.4,-,N/A,,Scattered Clouds,40,2012-10-06 14:41:00
9:55 AM,45.7,32.4,60,30.36,10.0,NE,11.5,-,0.00,,Scattered Clouds,50,2012-10-06 14:55:00
10:55 AM,46.6,28.9,50,30.39,10.0,NE,10.4,-,N/A,,Clear,50,2012-10-06 15:55:00
11:55 AM,47.8,25.5,42,30.39,10.0,ENE,12.7,-,N/A,,Clear,60,2012-10-06 16:55:00
12:08 PM,46.4,26.6,46,30.39,10.0,NNE,18.4,-,N/A,Rain,Light Rain,30,2012-10-06 17:08:00
12:24 PM,44.6,28.4,53,30.40,10.0,NE,21.9,-,N/A,,Clear,40,2012-10-06 17:24:00
12:55 PM,45.3,28.6,52,30.39,10.0,NE,17.3,25.3,0.00,,Clear,40,2012-10-06 17:55:00
1:30 PM,42.8,33.8,70,30.39,10.0,NNE,19.6,-,N/A,Rain,Light Rain,20,2012-10-06 18:30:00
1:55 PM,42.3,34.2,73,30.38,10.0,NNE,20.7,-,0.00,,Light Drizzle,30,2012-10-06 18:55:00
2:55 PM,43.7,32.4,64,30.35,10.0,NE,13.8,-,0.00,,Scattered Clouds,40,2012-10-06 19:55:00
3:55 PM,44.4,30.7,59,30.35,10.0,NNE,8.1,-,N/A,,Overcast,30,2012-10-06 20:55:00
4:55 PM,45.0,29.8,55,30.34,10.0,NNE,8.1,-,N/A,,Mostly Cloudy,20,2012-10-06 21:55:00
5:55 PM,44.6,29.3,55,30.34,10.0,North,11.5,-,N/A,,Overcast,10,2012-10-06 22:55:00
6:55 PM,43.7,31.3,62,30.34,10.0,North,11.5,-,N/A,,Mostly Cloudy,350,2012-10-06 23:55:00
7:55 PM,43.2,32.5,66,30.35,10.0,North,11.5,-,N/A,,Overcast,350,2012-10-07 00:55:00
8:55 PM,42.8,32.7,68,30.36,10.0,North,10.4,-,N/A,,Overcast,350,2012-10-07 01:55:00
9:55 PM,41.9,32.5,69,30.36,10.0,NNW,6.9,-,N/A,,Scattered Clouds,340,2012-10-07 02:55:00
10:55 PM,42.3,32.4,68,30.36,10.0,NW,10.4,-,N/A,,Mostly Cloudy,320,2012-10-07 03:55:00
11:55 PM,42.6,31.8,66,30.36,10.0,North,11.5,-,N/A,,Mostly Cloudy,350,2012-10-07 04:55:00